Wind_Speed
10 10 10 11 13 14 16 17 18 18 18 18 18 17 17 17 17 18 18 19 19 19 19 20 20 21 21 19 17 16 15 15 15 15 14 14 16 17 17 17 17 17 17 17 17 17 18 19 19 17 16 17 19 21 22 22 23 23 23 23 23 24 25 26 27 29 30 31 32
9 9 9 9 10 11 13 15 17 18 19 19 19 18 18 17 17 17 17 18 18 18 18 18 19 20 19 17 16 15 15 15 14 14 14 15 16 17 16 16 16 17 17 16 17 17 18 19 18 17 16 18 20 22 23 23 23 22 21 22 23 24 25 26 27 27 27 27 27
9 9 9 9 9 10 10 12 13 15 17 19 20 20 19 19 18 17 17 17 17 17 17 17 18 19 18 16 15 15 15 15 14 15 15 17 17 17 16 15 15 16 16 16 17 18 19 19 17 16 16 18 21 22 22 22 21 21 21 21 22 24 25 25 24 24 23 22 22
9 10 10 10 9 9 9 10 10 11 13 15 17 19 20 20 19 18 17 17 16 16 16 15 16 16 15 14 15 15 15 14 14 15 16 17 16 15 15 15 14 14 14 15 17 18 18 17 16 15 15 17 19 20 19 20 20 20 21 21 22 23 23 22 21 20 20 20 20
9 9 9 9 9 9 9 9 9 10 10 12 14 16 18 19 20 19 18 17 16 15 15 14 13 13 13 13 14 14 14 13 14 15 16 16 17 17 17 16 14 13 13 14 16 16 16 14 13 13 13 14 15 16 17 18 18 19 20 20 21 20 20 19 18 19 19 20 20
9 9 8 8 8 8 9 9 9 9 10 11 12 13 15 17 18 19 19 18 17 16 16 15 14 13 13 12 13 13 13 13 14 14 15 15 16 16 14 13 11 11 11 13 13 13 12 11 11 10 11 12 13 15 17 18 18 18 18 18 18 18 18 17 18 18 18 19 19
9 9 9 8 8 9 9 9 10 10 10 11 12 12 13 14 15 17 18 18 17 15 14 14 13 13 13 13 13 12 13 13 14 14 14 14 14 13 11 10 10 10 11 11 11 10 10 9 9 9 10 12 13 14 15 15 16 16 16 16 17 17 17 16 17 17 17 18 18
10 10 10 9 9 9 10 10 10 11 11 12 13 13 13 13 13 14 15 14 13 12 12 12 12 11 11 11 12 13 13 14 14 14 14 13 12 10 10 10 10 11 10 9 8 7 7 7 8 9 10 10 11 12 13 14 14 14 14 15 16 16 16 16 16 16 16 17 17
10 10 10 10 10 10 10 10 11 12 13 14 14 13 12 10 9 9 10 9 9 9 8 8 8 9 10 11 12 13 14 14 14 14 13 12 12 12 11 11 10 9 8 6 5 5 5 6 7 7 8 9 10 12 13 14 13 14 14 14 15 15 16 16 16 15 15 16 16
9 9 9 9 9 9 9 10 11 13 13 13 12 10 8 5 3 3 5 6 7 6 6 7 8 9 10 12 13 15 15 15 15 15 15 14 13 12 10 9 7 6 5 4 4 5 5 6 7 8 9 10 11 12 12 13 13 13 13 14 14 14 15 15 15 14 14 15 16
9 9 9 9 9 9 9 10 11 11 10 8 6 4 2 1 4 6 7 7 7 7 8 10 11 12 13 14 16 16 17 17 17 16 15 13 11 9 7 6 4 3 3 3 4 5 6 7 7 8 8 9 9 10 10 11 11 12 12 12 13 13 13 13 14 14 14 14 15
9 9 9 9 9 9 8 7 6 4 2 1 1 2 3 6 8 10 10 10 10 10 11 12 13 15 16 17 18 18 18 17 16 15 13 10 8 6 4 3 3 3 3 4 4 5 6 6 6 6 6 7 7 8 8 9 10 10 11 11 11 12 12 13 13 13 14 14 14
8 8 7 7 6 5 3 1 2 3 3 4 5 6 7 9 11 12 12 13 13 14 15 15 16 17 18 18 18 17 16 14 12 10 8 5 3 2 2 2 3 3 2 2 3 3 3 3 4 4 5 5 6 6 7 8 9 9 9 10 10 11 11 12 13 13 12 13 13
6 5 4 3 2 3 5 7 6 6 7 8 9 10 11 12 12 13 13 15 16 17 17 17 17 16 16 15 14 12 10 9 6 4 2 1 2 3 3 2 1 0 1 1 2 2 3 3 3 3 4 4 4 5 6 7 8 8 9 9 9 10 11 12 12 11 11 11 12
6 7 7 7 8 9 10 10 10 10 11 12 12 13 13 14 14 14 15 16 16 16 16 15 14 13 12 11 9 7 6 4 2 1 0 0 1 0 1 2 3 3 4 4 4 4 4 3 3 3 3 3 3 5 6 6 7 7 8 8 9 10 10 11 10 10 10 11 11
10 10 10 10 11 11 12 12 13 13 14 13 13 13 13 14 13 13 14 14 14 13 13 12 12 11 10 8 7 6 4 3 3 3 3 4 5 5 5 6 6 5 5 5 5 4 3 3 3 2 2 2 3 3 4 5 6 6 7 7 8 9 9 9 9 9 9 9 9
12 12 12 12 12 13 14 14 15 14 14 14 13 13 13 13 12 12 12 11 11 11 11 11 10 10 10 9 8 7 7 7 7 8 8 9 9 8 8 7 6 6 5 5 4 4 3 3 2 2 2 2 2 2 3 3 4 4 5 6 6 7 7 7 7 7 7 8 8
13 13 13 13 14 15 16 15 15 15 15 14 14 13 13 12 12 12 11 11 10 11 11 11 10 10 10 10 10 9 10 10 11 11 11 11 10 9 8 7 6 6 5 5 4 4 4 3 2 2 2 1 1 1 1 2 2 3 4 4 4 4 4 5 5 6 6 7 7
13 13 14 14 15 15 15 15 15 15 15 15 15 14 14 13 13 13 13 12 11 11 12 12 12 11 11 12 12 12 12 12 12 12 12 11 10 9 8 7 6 5 5 5 5 5 4 4 3 3 2 2 1 1 1 1 2 3 3 3 3 3 4 4 5 5 6 7 7
13 13 14 15 15 15 15 15 15 15 15 15 15 15 15 14 13 14 14 14 13 12 12 13 13 13 13 13 13 13 13 13 13 12 12 10 10 9 8 7 6 6 6 6 6 6 5 4 4 3 3 2 2 2 2 3 3 4 4 4 4 5 5 6 6 7 7 7 8
13 15 15 16 16 16 16 15 15 15 15 15 15 16 15 15 15 15 15 14 13 12 13 13 13 13 13 13 13 14 14 13 12 12 11 10 10 9 8 7 7 7 7 7 7 6 5 4 4 4 3 3 4 4 5 6 6 6 6 6 7 7 7 8 8 8 8 8 8
15 16 16 16 16 16 16 16 16 16 16 16 16 16 16 16 16 16 15 14 13 13 13 13 13 13 13 13 13 13 13 13 12 11 10 10 9 9 8 7 7 7 7 7 6 6 5 4 4 4 5 5 6 6 7 8 8 8 8 8 8 8 9 9 9 8 8 8 8
16 16 16 16 16 16 16 16 16 16 16 16 16 16 16 16 16 15 14 13 13 13 14 14 14 14 13 12 12 12 12 12 11 11 10 9 9 9 8 7 7 7 7 6 5 5 5 5 6 6 6 7 8 8 8 9 9 9 9 10 10 10 9 9 9 8 8 7 6
15 16 15 15 15 15 15 16 16 16 17 16 16 16 15 15 14 14 13 13 13 13 14 14 14 14 13 12 12 12 11 11 11 11 10 9 9 8 8 7 7 7 6 6 5 5 5 6 7 8 8 8 9 9 9 9 9 9 10 10 10 10 10 9 9 8 8 7 6
14 15 15 15 15 15 15 15 16 16 16 15 15 14 14 14 13 13 13 13 13 13 13 14 14 13 13 13 13 12 12 12 11 11 10 10 9 9 8 8 8 8 7 7 6 5 5 6 7 8 9 10 10 10 10 10 9 9 9 10 10 10 10 9 9 8 8 8 7
14 14 15 15 15 15 15 15 15 15 15 14 13 13 13 13 12 12 13 14 13 13 13 13 13 13 13 13 13 13 13 12 12 11 11 11 10 10 10 10 10 10 9 8 7 6 6 6 7 8 9 10 11 11 11 11 10 9 9 8 8 9 9 9 9 9 8 8 8
13 14 14 14 15 15 15 15 15 14 14 13 13 12 12 12 12 12 13 13 13 13 13 13 13 13 13 13 13 14 13 13 12 12 12 12 13 13 13 13 13 12 11 10 9 8 7 7 7 8 9 10 11 11 11 11 10 9 8 8 7 8 8 9 9 9 9 8 8
14 14 15 15 15 15 15 14 14 14 13 13 12 12 11 11 11 12 13 13 13 13 13 13 13 13 13 14 14 14 13 13 14 14 15 16 16 16 16 15 14 12 11 10 9 9 8 8 7 8 9 9 10 10 10 10 10 9 8 8 7 7 8 8 9 9 9 8 8
14 14 15 15 15 15 15 14 14 13 13 12 11 11 10 10 11 11 12 12 13 13 13 13 13 13 14 14 14 14 15 15 16 17 18 18 18 17 16 15 14 12 10 9 9 9 9 8 7 7 8 8 9 9 9 9 9 9 8 8 8 8 8 8 8 8 8 7 7
13 14 14 15 15 15 14 14 14 13 12 12 11 11 11 11 11 11 12 12 13 13 13 13 13 14 14 15 15 16 17 17 18 19 19 19 18 17 16 14 13 12 10 9 9 9 8 8 7 7 7 8 8 8 8 8 8 8 8 8 8 8 8 7 7 7 6 6 6
13 13 14 15 15 14 14 13 12 12 12 12 11 11 11 12 12 12 12 13 13 13 13 13 14 14 15 16 17 18 19 19 19 19 18 18 18 17 16 15 14 12 11 10 9 9 8 8 7 6 7 7 7 7 7 8 8 8 9 9 8 8 8 7 6 6 5 5 4
13 13 14 15 15 14 13 12 12 12 11 12 12 12 12 13 13 13 13 13 13 14 14 14 15 15 16 17 18 19 19 19 18 18 18 18 18 18 17 15 13 12 10 10 9 9 8 8 7 6 6 7 7 7 7 8 9 9 9 9 9 8 8 7 6 5 4 4 3
12 13 14 14 14 14 13 12 12 12 12 12 12 13 13 13 12 12 13 13 14 14 14 15 16 16 17 18 19 19 18 18 17 18 18 18 18 18 16 14 12 11 10 9 9 9 9 8 7 7 7 7 8 8 9 9 10 10 10 10 9 9 8 7 6 6 5 5 4
12 13 13 14 14 13 12 12 12 12 13 13 13 13 13 13 12 12 13 13 14 15 15 16 16 17 17 18 18 18 18 18 18 18 18 18 17 16 14 13 11 10 10 10 10 10 9 9 8 8 8 8 9 9 10 10 11 11 11 10 9 9 8 7 7 6 6 6 5
12 12 13 13 13 12 12 11 11 12 13 13 13 13 13 12 13 13 13 14 15 16 16 16 17 17 17 18 18 18 19 19 19 18 18 16 15 14 14 12 11 10 10 10 11 10 10 9 8 8 8 9 9 10 10 11 11 11 11 10 9 8 8 7 6 6 6 5 5
11 12 12 12 12 12 12 12 12 13 13 14 14 13 13 13 13 14 14 15 16 17 17 17 17 17 17 18 18 19 19 19 19 18 17 15 15 14 14 13 12 11 11 11 11 10 9 8 8 8 9 9 10 10 10 10 10 10 10 9 9 8 7 6 5 5 5 4 4
10 11 12 12 12 12 13 13 14 14 14 14 14 14 14 14 14 15 15 16 16 17 17 17 17 18 18 19 19 19 19 18 18 17 16 15 14 15 14 13 12 12 11 11 10 9 8 8 7 8 8 8 9 9 9 9 9 9 9 8 8 7 7 6 6 6 5 4 4
11 11 12 13 13 14 14 14 15 15 15 15 14 14 14 15 15 15 15 15 16 17 17 18 18 19 19 19 20 19 18 17 16 16 15 14 14 14 14 14 13 12 11 10 9 8 7 7 7 7 7 7 7 8 8 9 9 9 9 9 9 9 8 8 8 7 7 6 5
12 12 13 14 14 15 15 15 15 15 15 15 15 15 15 15 14 14 14 15 16 17 18 19 19 20 20 20 19 18 17 16 15 14 13 13 13 13 13 14 13 11 10 9 8 8 7 7 6 6 6 6 6 7 8 8 9 10 10 10 10 10 9 9 9 8 8 7 6
13 13 14 14 15 15 15 15 15 15 15 15 15 15 15 15 14 14 14 15 17 18 19 20 20 20 20 19 19 18 17 15 14 13 13 13 12 12 13 13 13 12 10 9 9 9 8 8 7 7 7 7 7 8 9 10 11 11 11 11 10 10 9 9 8 8 7 7 6
14 14 15 15 15 15 15 15 15 15 15 15 15 15 15 15 15 15 16 17 18 18 19 19 20 20 19 18 18 17 16 15 14 13 12 12 12 12 12 13 13 12 11 11 11 11 11 11 10 10 10 9 10 10 10 11 11 11 11 10 10 9 8 7 7 6 5 5 5
Wind_Direction
304 299 292 285 279 275 272 270 268 267 268 269 270 271 272 274 275 275 274 274 274 272 268 263 258 254 251 250 252 253 254 254 255 257 259 262 265 264 262 261 263 265 265 263 258 252 245 238 235 239 250 260 263 261 257 253 251 252 253 254 257 262 268 272 273 271 268 265 262
304 304 301 297 292 286 280 275 270 268 267 267 268 269 271 272 274 275 277 278 278 278 275 270 264 258 253 253 255 255 253 250 248 251 255 258 261 261 260 258 258 258 257 254 249 244 239 235 235 239 247 255 255 253 250 248 250 254 257 257 261 267 272 274 272 269 266 263 261
297 299 301 302 302 300 296 289 281 274 270 267 267 268 269 270 272 274 276 278 281 283 282 277 270 262 255 253 252 252 250 246 245 246 250 253 257 259 258 256 257 256 253 247 241 237 234 234 237 241 245 247 247 246 247 252 258 262 264 265 268 271 272 270 267 264 261 260 260
292 296 298 298 298 298 300 300 296 288 280 274 270 268 268 268 270 272 274 276 280 285 286 280 273 265 258 251 246 244 243 242 242 244 248 253 257 262 264 263 262 258 249 239 233 231 231 233 237 240 241 241 243 247 254 263 268 270 270 271 272 272 270 267 265 263 263 263 263
294 298 299 298 293 291 290 293 296 297 294 287 279 273 269 268 269 271 273 275 278 283 287 283 275 269 262 251 242 237 235 234 236 240 246 254 260 264 266 267 264 255 240 229 225 224 225 227 229 230 233 238 247 257 265 270 271 270 271 272 272 272 272 271 270 270 269 266 265
299 300 301 298 291 284 280 281 286 293 298 297 292 284 277 272 271 271 273 275 278 284 288 286 279 270 261 252 242 233 227 223 226 232 238 246 251 255 256 256 250 236 223 215 212 212 213 215 218 226 238 251 261 267 268 268 268 269 273 276 277 278 278 277 275 273 270 266 263
297 298 299 297 290 282 278 277 282 288 294 298 299 296 290 282 276 274 274 275 280 284 287 287 280 269 257 248 238 226 218 214 217 222 228 235 239 241 238 228 216 205 198 196 196 199 205 213 227 243 257 264 266 266 267 268 271 276 280 282 283 283 282 279 276 273 268 264 261
293 293 293 292 287 282 278 278 282 288 294 298 300 299 296 292 285 279 276 275 276 277 278 278 270 257 243 232 223 216 210 207 208 212 217 219 217 211 201 192 185 181 181 184 191 203 219 235 249 258 263 266 268 270 274 277 281 283 285 285 285 285 283 279 276 271 266 262 259
293 291 290 289 285 282 280 282 288 293 296 297 298 297 297 296 291 282 273 263 257 257 258 251 241 228 217 208 206 203 200 197 195 194 192 188 183 178 175 174 175 177 182 191 208 232 251 261 267 270 273 275 278 280 283 285 287 289 289 287 286 285 283 279 274 270 265 262 258
304 300 297 294 290 288 289 292 294 295 295 296 296 295 296 297 280 248 231 226 224 217 205 197 194 191 188 188 188 186 183 178 174 170 166 164 164 165 167 171 177 185 197 221 246 265 274 276 277 278 279 281 283 286 288 291 292 292 291 289 287 283 280 277 273 269 265 262 257
315 311 307 303 300 299 298 297 295 293 294 296 295 297 301 202 156 153 157 169 167 161 160 165 169 170 170 170 168 166 164 161 158 156 155 156 158 161 166 174 187 204 229 256 270 277 280 281 280 281 283 286 291 294 296 295 294 291 289 287 284 280 276 274 271 268 264 262 259
323 318 312 307 302 298 294 291 288 289 297 331 98 112 123 134 138 141 145 148 142 142 147 151 154 155 155 153 151 150 150 150 150 151 151 151 154 159 169 188 216 237 249 259 269 276 280 283 287 292 299 304 305 303 299 294 291 288 285 282 279 276 273 269 269 267 265 262 259
329 324 319 313 306 295 278 218 127 104 96 98 108 118 127 131 134 139 142 141 136 135 138 141 141 141 141 140 140 140 141 143 145 146 146 146 156 192 233 246 249 251 253 261 274 288 300 310 317 323 324 321 314 305 297 290 288 285 282 278 276 273 270 266 265 264 262 260 257
354 358 4 13 38 101 119 116 108 102 105 111 115 119 123 126 129 132 133 130 128 128 130 131 131 130 130 132 134 135 136 137 138 139 144 194 269 274 270 266 266 307 48 45 35 28 18 10 0 353 345 332 313 299 291 287 285 284 281 278 275 271 268 264 262 260 258 255 254
57 67 76 86 94 103 106 105 104 106 109 112 114 116 117 117 119 121 122 120 120 122 124 124 121 119 119 121 123 125 126 126 129 127 261 282 278 248 95 86 78 74 70 67 61 55 47 37 28 16 0 337 307 292 288 288 287 286 283 280 276 271 265 261 259 257 255 253 251
79 84 89 94 97 98 99 100 101 103 106 107 109 111 111 111 112 114 114 114 115 116 116 114 112 109 108 106 104 103 103 104 105 101 99 99 99 97 95 91 88 83 79 76 73 69 62 54 43 29 11 344 313 298 295 295 293 288 283 278 272 267 262 259 257 256 254 253 248
82 85 88 92 93 94 95 96 97 98 100 102 105 107 108 108 108 108 107 107 109 109 107 104 103 102 102 100 98 97 98 102 102 102 100 99 99 98 98 97 95 91 86 85 84 82 76 68 56 44 31 12 338 317 307 299 290 281 271 265 260 257 256 255 254 251 249 246 240
82 84 87 89 91 92 93 95 96 97 98 100 102 103 106 107 106 105 104 105 106 106 105 103 102 103 105 105 104 103 103 103 104 103 103 103 103 102 102 102 99 95 91 88 86 85 82 78 71 66 62 56 34 344 308 286 267 255 247 242 240 241 240 239 238 236 232 227 220
85 86 88 89 91 93 94 96 97 98 99 100 102 104 106 107 108 108 108 108 108 109 109 109 110 110 110 111 110 109 108 107 107 108 107 107 107 106 106 104 101 95 90 86 83 83 83 82 83 85 88 94 107 131 199 213 208 205 202 201 199 199 197 197 199 203 206 206 203
88 90 91 92 94 96 97 99 100 101 102 103 105 105 107 108 111 111 109 109 111 114 114 114 114 113 112 113 113 112 111 111 111 111 111 110 110 107 105 103 101 95 89 84 82 84 86 89 95 102 110 121 134 149 159 165 165 160 158 157 159 163 166 168 172 179 186 192 194
93 94 95 96 97 97 98 99 101 102 103 103 104 104 106 108 109 107 106 107 110 111 111 110 110 109 110 110 111 111 110 110 109 109 109 109 107 104 102 100 98 94 88 85 85 87 91 97 109 120 127 133 140 146 149 149 146 144 143 145 149 154 158 161 165 171 177 183 188
95 96 97 97 97 98 98 99 100 100 100 100 101 101 102 102 102 101 102 104 105 105 104 103 103 103 103 105 106 107 107 106 105 103 103 103 101 100 98 95 91 88 87 88 91 94 101 111 123 133 138 139 141 143 145 144 143 142 143 145 149 152 156 160 163 168 173 179 184
95 96 96 96 97 98 99 99 99 98 98 97 97 97 97 97 97 97 99 101 101 101 100 99 98 97 97 98 99 101 102 103 101 99 96 94 93 92 91 89 85 86 89 93 98 108 119 129 136 140 142 142 142 144 146 146 146 147 148 150 151 152 154 158 162 165 169 173 175
95 96 96 97 98 98 99 99 98 97 96 95 94 94 93 93 94 95 97 98 99 99 99 97 96 95 94 93 93 95 97 100 100 99 96 92 90 89 88 87 89 91 94 98 106 118 131 138 141 142 143 144 145 146 148 149 151 153 155 155 155 155 155 156 159 161 162 160 153
98 99 100 100 100 101 100 99 98 96 94 93 91 90 90 90 91 93 95 96 97 98 98 98 97 95 94 93 92 93 95 98 100 101 101 99 97 95 95 96 97 98 99 102 109 118 129 137 143 146 147 147 147 148 148 150 153 156 158 159 159 157 156 156 158 160 160 155 145
102 103 103 104 103 102 100 99 98 96 94 91 89 88 88 89 91 94 96 97 99 99 100 100 99 98 97 96 97 97 98 99 100 103 105 105 104 103 102 101 99 98 99 102 108 114 122 132 143 150 152 152 150 148 147 148 151 155 158 160 161 162 161 160 160 160 161 161 158
105 104 105 105 103 101 100 98 96 94 93 91 90 90 91 93 95 98 100 101 102 103 104 103 103 102 102 102 102 102 101 101 102 103 105 106 105 104 101 98 96 96 98 102 107 111 117 126 139 150 155 155 153 150 147 147 150 154 157 159 163 167 168 167 165 163 162 163 165
105 105 106 104 101 99 97 96 94 93 93 93 93 95 96 98 101 103 105 107 108 109 108 107 107 107 107 106 104 103 103 103 103 104 104 104 103 101 99 98 97 98 101 104 107 110 114 123 135 148 156 158 156 154 151 149 150 153 157 159 164 169 171 171 169 166 165 166 169
106 106 105 102 99 97 96 95 93 93 95 96 98 100 102 104 106 108 110 112 112 112 111 111 111 111 109 107 106 105 104 104 104 105 104 103 102 101 101 101 102 103 105 107 109 110 113 119 130 145 158 163 161 158 155 153 153 155 158 161 165 169 171 170 168 168 168 170 174
110 108 105 102 99 97 95 94 95 97 99 100 102 104 106 107 108 109 111 113 113 113 114 115 114 112 110 109 108 107 106 106 106 106 105 105 104 105 105 106 106 107 109 110 111 113 116 121 129 144 158 166 165 161 159 157 156 157 159 161 164 166 167 167 166 166 169 174 179
111 110 107 105 101 98 97 97 98 100 102 104 105 105 105 105 106 108 110 112 113 114 116 115 114 112 111 110 109 109 109 109 109 109 110 110 111 112 112 111 111 111 113 113 114 117 121 127 135 148 159 165 164 160 159 158 157 158 158 159 160 161 161 161 162 163 167 174 182
112 110 109 107 105 103 101 101 102 104 105 106 105 104 103 102 103 106 108 110 113 114 114 114 113 112 111 111 111 111 112 113 113 114 116 117 117 117 116 115 114 114 115 116 118 121 125 130 137 147 154 158 156 154 155 155 155 155 154 153 153 154 154 154 152 151 152 154 157
113 111 110 108 108 107 107 106 106 107 109 110 109 107 106 106 106 107 108 110 112 113 113 113 112 112 112 113 115 116 117 118 119 119 120 120 120 119 118 116 115 114 114 116 120 121 124 128 134 141 146 149 148 149 150 152 152 150 148 146 145 145 144 141 138 134 130 124 119
115 113 111 110 110 110 110 109 110 111 112 112 112 112 112 112 112 112 113 115 115 116 115 115 115 116 118 120 122 123 123 123 123 123 123 123 123 121 119 116 114 112 113 116 118 119 122 125 130 136 140 142 143 146 148 149 147 145 143 140 139 138 137 134 131 128 124 119 113
119 117 115 114 114 115 115 116 116 117 116 115 115 117 118 119 120 121 122 123 122 120 119 119 121 123 126 127 128 128 127 125 125 125 126 126 125 122 117 113 111 110 111 114 116 117 120 124 129 133 135 138 141 145 146 145 143 140 138 137 135 134 134 133 129 126 122 118 114
124 123 121 121 121 122 124 125 125 123 121 120 121 122 123 126 128 129 129 129 127 124 124 125 127 128 129 128 128 128 127 126 126 127 128 127 124 119 115 111 109 109 110 112 114 116 120 124 127 129 133 137 141 144 145 143 140 138 137 135 132 129 126 121 115 109 105 104 104
131 130 129 128 128 129 130 131 130 128 126 125 126 128 130 131 133 134 133 132 129 128 127 129 129 128 127 126 125 126 128 130 129 128 127 125 122 118 115 112 111 110 109 110 112 115 118 121 124 129 134 140 144 146 145 143 140 137 134 128 120 113 105 98 93 88 83 80 81
138 138 136 134 132 132 132 132 131 129 129 129 130 132 134 135 135 135 135 134 131 130 129 130 128 127 127 127 126 127 129 132 132 130 127 124 122 121 119 116 114 112 111 110 111 113 115 116 121 129 137 145 146 147 145 140 134 128 120 112 105 99 94 89 84 78 73 68 65
142 142 139 136 134 133 132 131 130 130 131 132 133 135 136 137 137 137 138 138 136 134 131 129 128 128 129 129 128 127 128 132 133 132 128 126 124 124 121 118 115 113 112 109 108 107 108 110 116 124 132 138 139 138 134 129 121 113 107 102 98 94 90 85 78 72 65 61 58
140 140 139 136 134 133 132 132 132 133 135 137 138 139 140 141 141 141 141 140 138 135 133 130 129 130 132 133 131 130 130 131 131 130 128 127 127 126 123 119 117 114 111 107 104 102 101 102 106 110 114 116 117 117 117 115 110 105 101 97 93 89 84 78 72 66 59 54 52
136 137 136 135 135 135 135 135 136 139 141 142 143 143 144 145 144 143 141 139 137 135 133 132 133 135 136 137 136 135 133 131 130 129 129 130 129 127 124 121 118 114 110 105 101 100 99 99 99 100 101 102 103 105 106 106 104 101 97 92 87 82 79 76 73 68 60 52 45
Height
781 780 780 780 780 780 780 780 780 780 780 780 780 780 780 780 780 780 780 780 780 780 780 780 780 780 780 781 783 785 785 785 786 786 787 788 789 789 789 789 790 790 790 791 791 791 792 792 793 794 795 797 798 799 799 799 800 799 799 798 798 799 799 799 800 800 800 800 800
780 780 780 779 779 779 779 778 778 778 778 778 778 778 778 778 778 778 778 779 779 779 779 779 779 779 780 781 783 784 784 784 784 785 785 787 787 787 786 786 787 788 789 789 790 790 791 791 792 793 794 796 797 797 797 797 798 798 798 798 798 798 798 798 798 798 798 799 799
780 780 779 779 778 778 778 777 777 777 777 777 777 777 777 777 777 777 777 777 777 778 778 778 778 778 778 780 781 782 782 782 783 783 784 785 785 785 785 785 785 786 787 788 789 790 790 790 791 791 792 794 795 795 796 796 796 796 797 796 796 797 797 797 797 797 798 798 799
779 779 778 778 778 777 777 777 776 776 776 776 776 776 776 776 776 776 776 776 776 776 776 776 776 776 777 778 780 780 781 782 782 783 783 783 783 783 784 784 785 785 786 787 788 789 789 790 790 790 791 793 794 795 795 795 795 795 795 795 795 795 795 795 796 796 797 797 798
778 778 777 777 777 777 776 776 775 775 775 775 775 775 775 775 775 775 775 775 775 775 775 775 775 775 776 777 778 779 780 780 781 782 782 782 783 783 784 784 784 785 785 786 787 787 788 788 789 790 791 792 793 794 794 794 794 794 794 794 795 795 795 795 795 795 796 796 797
777 777 776 776 776 776 775 775 775 775 774 774 774 774 774 774 774 774 774 774 774 774 774 774 774 775 775 776 776 777 778 778 779 780 781 781 782 782 783 783 784 784 785 785 786 787 787 788 789 790 791 792 792 793 793 793 793 793 793 794 794 794 794 795 795 795 795 795 795
776 776 775 775 775 775 775 775 774 774 774 773 773 773 773 773 773 772 772 772 772 772 772 773 773 774 774 775 775 776 776 777 777 778 779 780 781 781 782 783 783 784 785 785 786 786 787 788 789 790 790 791 791 791 791 792 792 792 793 793 793 793 794 794 794 794 794 794 794
775 775 775 775 774 774 774 774 774 773 773 773 772 772 771 771 771 771 771 771 771 771 771 772 772 773 773 774 774 775 775 775 776 777 778 779 780 781 782 782 783 784 785 785 785 786 786 787 788 789 789 790 790 790 791 791 791 791 792 792 792 793 793 793 793 793 793 793 793
775 774 774 774 773 773 773 773 773 773 772 771 771 771 770 770 770 770 770 770 770 770 770 771 771 771 772 773 773 773 774 775 775 776 778 779 780 781 782 783 783 784 784 785 785 785 786 786 787 788 788 789 789 790 790 790 791 791 791 791 792 792 793 793 793 793 793 793 793
774 773 773 773 773 772 773 773 772 772 771 770 770 770 770 770 770 769 769 769 769 769 770 770 770 771 771 772 772 773 773 774 775 776 778 779 780 781 782 783 783 784 784 784 785 785 785 786 787 787 788 788 789 789 790 790 790 791 791 791 791 792 792 792 793 793 793 793 792
773 773 772 772 772 772 772 772 771 770 770 770 770 770 770 769 769 769 769 768 768 769 769 770 770 770 770 771 772 772 773 774 775 777 778 779 780 781 781 782 783 783 783 784 784 785 785 786 786 787 787 788 788 789 789 790 790 791 791 791 791 792 792 792 792 792 792 792 792
773 772 772 771 771 771 771 770 770 770 770 770 769 769 769 769 769 769 769 768 769 769 769 770 770 770 770 771 772 773 774 775 776 777 778 779 780 780 781 782 782 783 783 783 784 784 785 785 786 786 787 787 788 789 789 790 790 790 791 791 791 791 791 792 792 792 792 792 792
772 772 771 771 770 770 770 770 770 770 770 770 769 769 769 769 769 769 769 768 768 769 770 770 771 771 771 772 773 774 775 776 777 777 778 779 780 780 781 781 782 782 783 783 783 784 785 785 786 786 787 787 788 789 789 790 790 790 790 790 791 791 791 791 791 791 791 792 792
772 771 771 770 770 769 769 769 770 770 770 770 770 770 770 770 770 770 769 769 769 770 770 771 771 772 773 773 774 775 775 776 777 777 778 779 779 780 780 781 782 782 782 783 783 784 784 785 785 786 786 787 788 788 789 789 789 790 790 790 790 790 791 791 791 791 791 791 791
772 771 771 770 770 770 769 769 770 770 770 770 770 770 770 770 770 770 770 770 770 770 771 771 772 773 774 774 775 775 776 776 777 777 777 778 779 779 780 781 782 782 783 783 783 784 784 785 785 786 786 787 787 788 789 789 789 789 790 790 790 790 790 791 791 791 791 791 791
772 771 771 771 770 770 770 770 770 770 770 770 771 771 771 771 771 771 771 771 771 772 772 772 773 773 774 775 775 775 776 776 776 777 777 778 779 780 780 781 782 783 783 783 783 784 784 785 785 785 786 787 787 788 788 789 789 789 790 790 790 790 790 791 791 791 791 792 792
772 772 771 771 771 771 771 771 771 771 771 771 771 771 771 771 771 771 771 772 772 772 772 773 773 774 774 775 775 775 776 776 776 776 777 778 779 780 780 781 782 783 783 783 783 783 784 785 785 785 786 787 787 788 788 788 789 789 790 790 790 791 791 791 791 792 792 793 793
773 773 772 772 772 772 772 772 772 772 772 772 772 772 772 772 772 772 772 772 772 773 773 773 774 774 775 775 775 775 776 776 776 777 777 778 779 780 781 781 782 782 783 783 783 783 784 785 785 786 786 787 787 788 788 788 789 789 790 790 791 791 792 792 792 793 793 793 794
774 774 773 773 773 773 773 773 773 773 773 773 773 773 772 772 772 772 772 773 773 773 773 774 774 775 775 775 775 776 776 777 777 777 778 779 780 780 781 781 782 782 783 783 783 784 784 785 786 786 787 787 787 787 788 788 789 789 790 790 791 791 792 793 793 793 794 794 794
775 774 774 774 774 774 774 774 774 774 774 774 773 773 773 773 773 773 773 773 774 774 774 774 775 775 775 775 776 776 777 777 778 778 779 779 780 780 781 781 782 782 783 783 784 784 785 785 786 786 787 787 787 787 788 788 789 789 790 791 791 792 792 793 794 794 794 795 795
775 775 775 775 775 775 775 775 775 775 775 774 774 774 774 774 774 774 774 774 774 775 775 775 775 775 776 776 776 777 777 778 778 779 779 780 780 780 781 782 782 783 783 784 784 785 785 786 786 787 787 787 787 788 788 789 789 790 790 791 792 792 793 793 794 794 795 795 795
776 776 776 776 775 775 776 776 775 775 775 775 775 775 775 775 774 774 774 775 775 775 775 775 776 776 777 777 778 778 778 779 779 779 780 780 780 781 782 782 783 783 784 785 785 786 786 787 787 787 787 788 788 788 789 789 790 790 791 792 792 793 793 794 794 795 795 795 796
777 777 776 776 776 776 776 776 776 776 776 776 776 776 776 775 775 775 775 775 776 776 776 776 777 777 778 778 778 779 779 779 780 780 780 781 781 782 783 783 784 785 785 785 786 786 787 787 787 788 788 788 789 789 790 790 790 791 792 792 793 793 794 794 795 795 795 796 796
777 777 777 777 777 777 777 777 777 777 777 777 777 777 776 776 776 776 776 776 777 777 777 777 778 778 778 779 779 779 780 780 780 781 781 782 782 783 784 784 785 785 786 787 787 787 787 788 788 788 789 789 789 790 790 790 791 792 792 793 793 794 794 795 795 795 796 796 797
778 778 778 777 777 777 777 777 777 777 777 777 777 777 777 777 777 777 777 777 778 778 778 778 779 779 779 779 780 780 780 780 781 782 782 783 784 784 785 785 786 787 787 788 788 788 789 789 789 789 789 790 790 790 791 791 792 792 793 793 794 794 795 795 795 795 796 797 797
778 778 778 778 778 778 778 778 778 778 778 778 778 778 778 778 778 778 778 779 779 779 780 780 780 780 780 780 780 780 781 781 782 783 783 784 785 785 786 786 787 788 788 789 789 790 790 790 790 790 790 790 791 791 791 792 792 793 794 794 795 795 795 795 796 796 796 797 797
779 779 779 778 778 778 778 778 778 778 778 779 779 779 779 779 780 780 780 780 780 780 780 780 780 780 781 781 781 781 782 782 783 783 784 785 785 786 787 787 788 789 790 790 791 791 791 791 791 791 791 791 791 792 792 792 793 794 794 795 795 796 796 796 796 797 797 797 798
780 780 779 779 779 779 779 779 779 779 779 780 780 780 780 780 781 781 781 781 781 781 782 782 782 782 782 782 782 782 783 783 784 784 785 785 786 787 788 788 789 790 791 791 792 792 792 792 793 793 793 792 792 792 793 793 794 795 795 796 796 797 797 797 797 797 797 797 798
780 780 780 780 780 780 780 780 780 780 780 781 781 781 782 782 782 782 782 782 783 783 783 783 783 783 783 783 783 784 784 785 785 785 785 786 787 788 789 789 790 791 792 792 793 793 793 794 794 794 794 794 793 793 793 794 794 795 796 796 797 798 798 798 798 798 797 798 798
781 781 780 780 780 780 780 780 781 781 781 782 782 782 783 783 783 783 784 784 784 784 785 785 785 785 784 785 785 785 785 786 786 786 787 787 788 789 790 790 791 792 793 793 794 794 794 794 795 795 795 794 794 794 794 794 795 796 796 797 798 798 798 798 798 798 798 798 798
781 781 781 780 780 781 781 781 781 782 782 782 783 783 784 784 785 785 785 785 785 786 786 786 786 785 785 785 786 786 786 787 787 788 788 788 789 789 790 791 792 793 793 794 794 795 795 795 795 795 795 795 795 795 795 795 796 796 797 798 798 799 799 799 799 799 799 799 799
782 782 781 781 781 781 782 782 782 782 783 783 784 784 785 785 786 786 786 786 787 787 787 787 787 787 787 787 787 787 788 788 789 789 789 789 790 790 791 791 792 793 794 795 795 795 795 795 795 795 795 795 795 795 796 796 797 797 798 798 799 799 800 800 800 800 800 800 800
782 782 781 781 781 782 782 783 783 783 783 784 785 785 786 786 787 787 787 788 788 788 788 788 788 788 788 788 788 789 789 790 790 790 790 790 790 791 792 793 793 794 795 795 795 795 795 795 795 795 795 795 796 796 796 797 797 798 799 799 800 800 800 800 800 800 800 800 800
782 782 782 782 782 782 783 783 784 784 784 785 785 786 787 787 788 788 788 789 789 789 789 789 789 789 789 790 790 790 790 790 791 791 791 792 792 792 793 794 794 795 795 795 795 796 796 795 795 795 796 796 796 797 797 798 798 799 799 800 800 800 800 800 800 800 800 800 800
783 782 782 782 782 783 783 784 784 785 785 786 786 787 788 788 789 789 789 790 790 790 790 790 790 790 790 790 790 790 790 791 791 792 793 793 794 794 794 795 795 795 796 796 796 796 796 796 796 796 796 796 797 797 798 798 799 799 800 800 800 800 800 801 801 801 801 801 801
783 783 783 783 783 784 784 785 785 786 786 787 787 788 789 789 790 790 790 790 790 790 791 791 791 791 791 791 791 791 792 792 793 793 794 794 795 795 795 796 796 796 796 797 797 796 796 796 796 796 797 797 798 798 799 799 799 800 800 800 800 800 801 801 801 801 801 801 801
783 783 783 784 784 784 785 785 786 786 787 787 788 789 789 790 790 791 791 791 791 791 791 791 791 792 792 792 792 793 793 793 794 794 795 795 795 796 796 796 797 797 797 797 797 797 797 797 797 797 798 798 798 799 799 799 800 800 800 800 801 801 801 802 802 802 802 802 802
784 784 784 784 785 785 785 786 786 787 787 788 789 790 790 791 791 792 792 792 792 792 792 792 792 792 793 793 793 794 794 794 795 795 795 796 796 796 797 797 797 797 798 798 798 797 797 798 798 798 799 799 799 799 800 800 800 800 801 801 801 801 802 802 802 802 802 802 802
784 784 785 785 785 786 786 787 787 788 788 789 790 790 791 791 792 792 793 792 792 792 792 792 793 793 793 794 794 795 795 795 796 796 796 797 797 797 797 797 798 798 798 798 798 798 798 798 799 799 800 800 800 800 800 800 801 801 801 801 802 802 802 802 802 803 803 803 803
785 785 785 786 786 787 787 787 788 788 789 790 790 791 791 792 792 793 793 793 793 793 793 793 794 794 794 795 795 795 796 796 796 797 797 797 798 798 798 798 798 798 799 799 799 799 799 799 800 800 800 800 801 801 801 801 801 801 802 802 802 802 802 803 803 803 803 803 803
786 786 786 787 787 787 788 788 789 789 790 790 790 791 791 792 792 793 793 793 794 794 794 794 795 795 795 795 796 796 796 797 797 797 798 798 798 798 798 798 799 799 799 799 799 800 800 800 800 801 801 801 801 802 802 802 802 802 802 802 802 803 803 803 803 803 803 803 803